Regional Weather Roundup
Issued by NWS

Current Version | Previous Version | Text Only | Print | Product List | Glossary On
Versions: 1 2 3 4 5 6 7 8 9 10 11 12 13 14 15 16 17 18 19 20 21 22 23 24 25 26 27 28 29 30 31 32 33 34 35 36 37 38 39 40 41 42 43 44 45 46 47 48 49 50
000
ASUS42 KTBW 221810
RWRFL
FLORIDA REGIONAL WEATHER ROUNDUP
NATIONAL WEATHER SERVICE TAMPA BAY RUSKIN FL
200 PM EDT MON SEP 22 2014

NOTE: "FAIR" INDICATES FEW OR NO CLOUDS BELOW 12,000 FEET WITH NO
SIGNIFICANT WEATHER AND/OR OBSTRUCTIONS TO VISIBILITY.


FLZ001>010-012>015-112-114-115-221900-
PANHANDLE FLORIDA

CITY           SKY/WX    TMP DP  RH WIND       PRES   REMARKS
PENSACOLA      PTSUNNY   87  65  47 NW7       29.99F
PENSACOLA NAS  MOSUNNY   88  68  51 NW8G17    29.99F
MILTON NAS     PTSUNNY   90  68  48 VRB6      30.00F
CRESTVIEW      MOSUNNY   91  65  41 N7        30.00F
DUKE FIELD     MOSUNNY   89  74  61 NW3       29.99F HX  98
VALPARAISO     MOSUNNY   90  68  47 SE2       29.98F
MARY ESTHER    SUNNY     88  65  45 S8        29.98F
TRI COUNTY     FAIR      89  67  47 MISG      29.99F
PANAMA CITY    FAIR      90  64  42 CALM      29.98F
TYNDALL AFB    SUNNY     87  73  64 VRB6      29.99F
APALACHICOLA   SUNNY     87  70  56 SE9       29.99F

STATION/POSITION SKY/WX   TEMP    WIND        PRES    WAVE   SWELL
                          AIR SEA DIR/SP/G            HT/PER HT/PER
                          (F)     (DEG/KT/KT) (MB)    (FT/S) (FT/S)
30.1N   87.6W              83 85   10/  2/  4 1016.0F   1/ 4   2/ 4
29.2N   88.2W              82 85   30/ 16/ 17 1016.2    2/ 4
28.8N   86.0W              80 85   80/  8/ 10 1015.3F   2/ 6   2/ 6
PANAMA CITY BEAC           83 85  230/  5/  7 1015.6F
CAPE SAN BLAS    NOT AVBL
TOWER C                    79      70/ 11/ 12 1015.7F
28.5N   84.5W              81 84  150/  2/  6 1015.3F   2/ 6   2/ 6

$$
FLZ011-016>038-118-127-128-134-139-239-221900-
NORTH FLORIDA

CITY           SKY/WX    TMP DP  RH WIND       PRES   REMARKS
MARIANNA       MOSUNNY   88  67  49 W7        29.99F
TALLAHASSEE    MOSUNNY   88  62  41 E5        29.99F
PERRY          MOSUNNY   84  66  54 CALM      30.00F
CROSS CITY       N/A     88  72  58 S3        29.98F
LAKE CITY      FAIR      84  68  58 CALM      30.00F
GAINESVILLE    PTSUNNY   83  73  72 S5        29.99F
MAYPORT NAS    PTSUNNY   87  67  51 E8        30.00F
JACKSONVILLE   MOSUNNY   87  61  41 S5        29.99F
JAX NAS        MOSUNNY   90  66  45 E6        30.00F
JAX CRAIG      MOSUNNY   87  65  47 SE5       30.00F
JAX CECIL      MOSUNNY   88  68  51 NE5       30.00F
ST AUGUSTINE   MOSUNNY   86  69  56 E8        30.01F

STATION/POSITION SKY/WX   TEMP    WIND        PRES    WAVE   SWELL
                          AIR SEA DIR/SP/G            HT/PER HT/PER
                          (F)     (DEG/KT/KT) (MB)    (FT/S) (FT/S)
SHELL POINT                82     140/  5/  5   N/A
KEATON BEACH               81     250/  4/  5 1015.7F
CEDAR KEY                  76     330/  2/  3 1016.0F
FERNANDINA                 85 81  150/  7/ 10 1015.7F
30.7N   81.3W                 84                N/A     2/ 9
MAYPORT                    84 83  100/  6/  9   N/A
31.4N   80.9W              81 83  230/ 10/ 12 1016.4F   2/ 8   2/ 8
ST AUGUSTINE               81     120/  7/  8 1016.7F

$$
FLZ040-043>046-052-053-057-058-063-144-221900-
INTERIOR CENTRAL FLORIDA

CITY           SKY/WX    TMP DP  RH WIND       PRES   REMARKS
OCALA          MOSUNNY   81  72  74 W5        30.01F
THE VILLAGES     N/A     82  75  78 CALM      29.91F
LEESBURG       CLOUDY    84  73  69 S3        30.01F
SANFORD        TSTM      74  71  91 E7        30.00F
ORLANDO EXEC   PTSUNNY   86  72  62 N10       29.99F
ORLANDO INTL   PTSUNNY   87  72  60 E5        29.99F
KISSIMMEE      PTSUNNY   86  73  66 SE7       30.00F
WINTER HAVEN   CLOUDY    84  73  69 SW6       30.01F
LAKELAND       CLOUDY    82  73  74 SW7       30.02F
BARTOW         PTSUNNY   84  72  65 S8        30.01F
OKEECHOBEE     PTSUNNY   86  73  66 MISG      30.01F

$$
FLZ041-047-054-059-064-141-147-221900-
EAST CENTRAL FLORIDA

CITY           SKY/WX    TMP DP  RH WIND       PRES   REMARKS
ORMOND BEACH   MOSUNNY   84  66  54 E9        30.01F
DAYTONA BEACH  PTSUNNY   82  73  74 VRB6      30.01F
DELAND         CLOUDY    84  72  65 SE7       30.01F
JFK SPACE CTR  CLOUDY    83  73  71 NE8       30.00F
TITUSVILLE     PTSUNNY   84  73  70 SE9       30.01F
CAPE CANAVERAL MOSUNNY   84  73  69 SE8       30.00F
PATRICK AFB    MOSUNNY   83  75  76 E9        30.01F
MELBOURNE      LGT RAIN  83  76  79 NE8       30.00F
VERO BEACH     PTSUNNY   86  73  65 E10       30.00F
FT PIERCE      MOSUNNY   86  73  65 E10       29.99F
STUART         PTSUNNY   84  73  70 E14       30.01F

STATION/POSITION SKY/WX   TEMP    WIND        PRES    WAVE   SWELL
                          AIR SEA DIR/SP/G            HT/PER HT/PER
                          (F)     (DEG/KT/KT) (MB)    (FT/S) (FT/S)
28.5N   80.2W              81 86  130/  2/  4 1017.2F
28.9N   78.5W              79 84   20/  2/  6 1017.3F   4/ 8   3/ 8
TRIDENT PIER               85 83  110/  4/  8 1015.9F
28.4N   80.5W                 84                N/A     2/10
27.6N   80.2W                 84                N/A     3/ 9   2/11

$$
FLZ050-056-061-142-242-148-248-149-249-151-251-155-255-
160-260-221900-
WEST CENTRAL FLORIDA

CITY           SKY/WX    TMP DP  RH WIND       PRES   REMARKS
CRYSTAL RIVER  CLOUDY    79  73  83 CALM      29.99F
INVERNESS      FAIR      77  68  73 CALM      30.01F
BROOKSVILLE    CLOUDY    80  75  84 SW16G22   30.02F
ZEPHYRHILLS    MOCLDY    79  72  78 CALM      30.02F
CLEARWATER     LGT RAIN  73  72  96 S6        30.03F FOG
TAMPA INTL     RAIN      74  71  91 SW7       30.03F FOG
TAMPA EXEC     HVY RAIN  73  70  88 CALM      30.04S
PLANT CITY     HVY RAIN  79  72  78 W20       30.05R
MACDILL AFB    TSTM      73  73 100 S3        30.03F
ST PETERSBURG  TSTM      73  71  93 W5        30.01F
SARASOTA       CLOUDY    75  71  87 NW10      30.00F
VENICE           N/A    N/A N/A N/A MISG        N/A

STATION/POSITION SKY/WX   TEMP    WIND        PRES    WAVE   SWELL
                          AIR SEA DIR/SP/G            HT/PER HT/PER
                          (F)     (DEG/KT/KT) (MB)    (FT/S) (FT/S)
CEDAR KEY                  76     330/  2/  3 1016.0F
28.5N   84.5W              81 84  150/  2/  6 1015.3F   2/ 6   2/ 6
27.3N   84.3W                 85                N/A     4/ 4
CLEARWATER BEACH NOT AVBL
MIDDLE TAMPA BAY           75     280/ 13/ 14 1017.1F
VENICE                     78 84  110/  3/  4 1015.2F

$$
FLZ066-069-070-075>078-162-262-165-265-221900-
SOUTHWEST FLORIDA AND KEYS

CITY           SKY/WX    TMP DP  RH WIND       PRES   REMARKS
PUNTA GORDA    CLOUDY    86  73  65 N3        30.00F
FT MYERS       CLOUDY    80  75  84 S8        29.99F
SOUTHWEST INTL PTSUNNY   85  74  69 S7        30.00F
NAPLES         PTSUNNY   86  75  69 SW12      30.01F HX  95
MARCO ISLAND   PTCLDY    86  75  70 S7        30.01S HX  95
MARATHON       CLOUDY    81  71  71 E7        30.01F
KEY WEST NAS   PTSUNNY   85  73  67 S13       30.01F THUNDER
KEY WEST INTL  PTSUNNY   83  71  67 S15       30.01F THUNDER

STATION/POSITION SKY/WX   TEMP    WIND        PRES    WAVE   SWELL
                          AIR SEA DIR/SP/G            HT/PER HT/PER
                          (F)     (DEG/KT/KT) (MB)    (FT/S) (FT/S)
VENICE                     78 84  110/  3/  4 1015.2F
NAPLES                     85 88  200/  2/  8 1016.9S
DRY TORTUGAS               84     130/  8/  9 1015.7F
NW FL BAY                  83     130/  7/  9 1016.9F
SAND KEY                   80     120/ 23/ 28 1016.4F
SOMBRERO KEY               82     110/  5/  6 1016.9F
LONG KEY                   80 85  140/  9/  9 1016.8F
MOLASSES REEF              79 85  310/  2/  3 1016.9F

$$
FLZ067-068-071>074-168-172>174-221900-
SOUTHEAST FLORIDA

CITY           SKY/WX    TMP DP  RH WIND       PRES   REMARKS
W PALM BEACH   TSTM      84  73  69 SE9       30.01F
FT LAUDER-EXEC CLOUDY    82  73  74 SE12      30.02F
FT LAUDERDALE  CLOUDY    82  70  66 SE6       30.02F
POMPANO BEACH  PTSUNNY   84  73  69 SE9       30.02F
PEMBROKE PINES LGT RAIN  83  74  74 CALM      30.04S
OPA LOCKA      LGT RAIN  84  73  69 S3        30.03F
MIAMI          CLOUDY    86  73  65 VRB7      30.03S
WEST KENDALL   LGT RAIN  87  76  69 E9        30.03S HX  97
HOMESTEAD      LGT RAIN  81  73  78 SE9       30.02F

STATION/POSITION SKY/WX   TEMP    WIND        PRES    WAVE   SWELL
                          AIR SEA DIR/SP/G            HT/PER HT/PER
                          (F)     (DEG/KT/KT) (MB)    (FT/S) (FT/S)
PORT EVERGLADES            81     140/  7/ 10 1017.0
VIRGINIA KEY               83 85  100/  5/  7   N/A
LAKE WORTH                 82 85  160/  6/  8 1016.3R
FOWEY ROCKS                82 85   80/  8/  9 1016.8F
SETTLEMENT POINT           84     160/  3/  3 1017.2F

$$



USA.gov is the U.S. government's official web portal to all federal, state and local government web resources and services.